Location: Lecco
(45.8566°N, 9.3977°E)
Time: 19:53:22
(UTC+02:00)

S-56A Canister/Altair - Pass Details

Date: 23 July 2019
Orbit: 633 x 2499 km, 38.9° (Epoch: 23 August)

Event Time Altitude Azimuth Distance (km) Brightness Sun altitude
Rises 10:46:52 0° 269° (W) 5,522 11.5 48.1°
Reaches altitude 10° 10:50:13 10° 266° (W) 4,706 11.3 48.6°
Maximum altitude 11:03:52 63° 190° (S) 2,687 11.3 50.7°
Drops below altitude 10° 11:18:27 10° 114° (ESE) 4,990 12.5 52.9°
Sets 11:22:07 0° 112° (ESE) 5,861 12.6 53.4°
